Theta_e
323 323 327 326 329 328 329 327 324 326 326 326 326 326 325 327 341 347 343 342 343 342 332 332 342 344 338 341 341 340 339 339 338 337 335 335 330 320 316 321 320 326 337 336 333 325 317 314 323
323 328 326 325 329 329 328 326 326 324 325 325 325 326 326 337 342 344 345 343 347 344 337 338 340 342 340 340 340 339 340 339 337 326 328 330 320 331 330 328 325 333 338 336 332 323 312 312 314
323 328 328 327 328 328 329 326 324 325 324 325 326 326 328 338 342 344 347 343 346 347 343 337 342 338 344 342 339 339 339 335 322 321 324 321 318 336 336 337 337 339 337 334 333 317 311 311 312
323 327 326 328 328 326 325 324 324 324 325 325 325 327 335 339 342 344 342 344 346 347 346 338 332 340 341 341 340 339 337 336 326 321 319 312 327 336 337 337 337 337 335 334 331 313 313 315 318
327 325 327 328 329 327 324 324 323 324 325 325 324 328 340 342 344 343 344 346 346 346 347 342 335 341 344 342 341 339 338 336 334 320 314 311 321 331 334 334 336 335 336 334 320 313 316 319 321
328 326 330 330 328 327 325 323 323 324 324 323 323 330 341 344 345 344 343 345 344 345 346 344 334 337 340 342 340 339 337 336 334 321 312 311 313 316 327 331 333 333 334 323 316 316 319 321 322
326 327 330 329 328 328 326 325 323 323 324 324 323 325 343 345 346 345 345 345 344 344 345 337 335 339 340 339 338 339 337 336 333 324 313 311 311 312 314 324 326 328 323 319 314 318 322 322 321
325 326 329 329 329 329 327 325 323 323 323 323 322 327 338 345 339 345 345 345 345 344 343 342 334 330 335 340 340 339 336 335 333 325 314 313 312 312 314 317 322 321 319 315 317 320 322 321 320
324 327 329 329 329 328 327 325 324 323 323 322 322 330 334 343 337 337 344 345 345 344 342 341 340 336 336 337 335 335 336 329 326 327 318 313 314 313 312 318 320 319 315 315 318 320 321 320 320
322 325 327 326 326 325 325 325 324 322 322 322 321 325 332 334 328 331 334 340 344 344 342 341 340 340 340 339 339 331 323 321 321 326 324 314 315 316 315 314 314 313 314 317 320 320 320 320 320
321 323 324 325 323 321 324 324 323 322 321 321 321 323 332 336 334 335 334 335 336 344 343 341 340 340 339 338 335 332 322 321 323 332 325 316 327 329 323 319 316 316 317 318 320 322 321 320 320
320 320 321 322 320 320 321 322 322 321 322 322 323 324 328 333 336 334 337 340 340 338 343 342 342 340 339 337 334 334 330 335 332 334 334 326 331 331 331 321 318 317 317 319 321 323 326 321 320
320 319 319 319 320 320 320 320 319 321 321 322 323 322 322 323 329 336 337 338 342 342 336 338 342 341 340 337 335 334 334 338 336 337 336 331 331 333 333 330 329 327 320 328 328 330 326 325 322
319 319 319 319 320 320 319 318 319 320 321 322 321 321 320 321 322 324 336 338 339 340 340 338 335 338 340 340 336 335 335 336 337 336 335 332 331 332 332 333 332 331 328 331 331 332 331 329 323
319 319 319 319 320 320 319 320 319 320 321 321 321 321 320 320 319 320 322 327 337 340 340 340 336 333 337 340 339 337 338 337 337 337 337 336 331 332 332 331 333 333 332 329 330 330 330 329 324
319 319 320 319 319 319 319 320 319 320 321 321 320 320 319 319 319 318 319 322 325 329 330 340 341 340 337 336 342 339 339 340 339 338 338 338 336 332 330 331 330 333 333 332 330 329 329 328 325
319 320 320 319 318 319 318 319 318 319 320 320 319 319 319 318 318 318 318 318 319 322 324 327 330 337 341 340 339 340 336 338 339 339 338 338 338 336 334 330 329 329 331 332 331 330 329 328 325
320 319 318 318 318 318 319 318 317 318 318 317 318 318 318 318 318 318 317 317 317 318 319 321 322 323 328 334 339 339 337 334 336 338 339 338 337 336 336 335 333 331 329 331 331 330 329 328 326
316 317 317 317 318 317 317 317 317 317 317 317 317 317 317 317 317 317 317 318 318 318 319 319 319 320 320 320 327 332 335 334 333 329 330 336 337 336 334 334 334 333 331 331 330 330 329 328 326
316 316 316 316 317 317 316 316 315 316 316 317 317 317 317 317 317 316 316 315 316 315 315 316 316 317 318 319 320 324 328 330 329 328 325 325 332 339 337 335 332 332 332 332 331 331 330 328 327
316 316 315 316 316 316 316 315 315 315 315 315 313 313 314 314 314 314 316 316 315 315 314 313 314 315 316 317 318 319 322 322 333 331 324 320 322 330 335 336 336 332 331 332 331 331 331 330 328
316 315 316 318 317 316 315 310 314 314 312 312 313 312 313 314 315 315 316 316 316 315 313 313 313 313 312 313 315 317 317 319 323 331 331 328 327 324 325 332 333 334 335 334 331 331 331 330 329
317 317 318 318 318 318 316 316 316 311 312 312 313 314 315 315 316 316 316 316 316 315 313 313 313 314 315 314 313 312 312 313 316 323 327 330 331 331 328 326 327 330 332 333 331 331 331 330 329
318 316 316 317 318 321 318 315 313 312 312 311 313 314 315 315 316 317 317 316 316 315 314 313 313 313 314 315 315 314 314 313 312 312 314 318 325 329 329 329 328 331 329 329 330 329 329 329 328
316 317 317 320 319 320 315 316 314 311 311 311 312 314 315 316 317 317 317 316 315 314 314 313 313 313 314 314 314 315 316 316 314 313 313 317 322 326 327 327 326 326 329 329 327 326 326 327 328
316 318 318 319 321 317 311 314 312 310 312 313 314 314 315 316 317 317 316 315 315 314 313 312 312 312 312 313 314 314 315 315 316 316 316 315 316 322 324 325 325 325 327 329 328 324 324 325 325
316 318 311 314 311 314 311 312 311 309 310 312 313 314 315 317 317 316 315 315 314 313 312 311 311 311 311 311 311 313 314 314 314 313 313 313 313 314 318 320 323 324 323 325 326 325 322 323 324
315 316 318 312 315 317 312 311 310 308 308 310 313 315 316 317 317 315 314 313 313 312 311 311 310 310 310 310 310 311 311 311 311 311 311 311 311 312 312 314 318 321 323 322 322 323 320 321 320
314 317 316 314 312 316 313 310 309 308 308 310 311 314 315 317 316 314 312 311 310 311 310 310 310 309 310 309 309 309 309 309 309 310 311 311 311 310 310 311 312 315 316 316 320 319 319 317 318
312 315 314 318 319 310 310 311 308 308 309 311 311 314 315 317 315 312 310 309 310 310 309 308 308 309 309 309 309 309 309 309 310 310 309 310 310 310 310 310 311 312 314 317 316 317 317 316 316
Wind_Speed
8 5 9 11 3 3 7 8 7 3 2 7 8 4 5 7 6 5 16 8 13 14 20 19 17 15 13 12 12 10 8 7 3 2 3 2 2 3 8 9 10 12 11 9 8 9 7 5 4
8 2 8 8 3 6 6 9 7 3 12 6 2 4 5 9 13 11 12 16 15 13 19 18 18 16 16 12 10 9 8 4 4 1 4 4 6 11 11 11 12 12 11 8 6 8 8 7 8
9 3 10 4 6 8 7 9 8 14 5 6 7 5 3 9 12 7 6 21 16 11 15 17 18 17 16 12 9 9 6 3 5 5 6 7 12 11 9 10 10 10 11 4 4 7 8 10 11
4 2 8 6 10 14 14 4 9 10 5 3 3 5 9 6 5 6 18 20 17 11 17 13 17 17 15 13 12 8 4 4 4 6 7 9 13 11 10 10 11 10 7 3 3 6 8 9 10
5 6 6 8 13 12 10 11 1 7 5 8 1 6 11 12 11 10 21 18 16 16 14 10 16 17 16 13 12 10 7 6 4 5 8 9 12 11 10 10 11 10 7 2 2 6 7 8 8
9 12 6 12 13 13 11 16 3 4 9 4 3 6 8 14 13 13 17 17 16 12 11 11 16 17 15 13 11 10 8 7 6 5 8 8 9 8 10 9 9 9 6 2 3 5 6 6 6
13 3 14 15 15 13 13 11 10 7 5 8 3 4 16 14 17 14 14 14 15 9 7 10 17 18 16 13 11 11 9 7 5 3 7 7 8 7 8 10 7 7 5 3 5 5 4 4 4
18 3 8 16 13 15 14 17 17 11 10 4 4 5 7 10 15 22 18 12 13 13 7 4 13 14 14 14 13 11 10 10 7 5 5 6 6 7 8 9 10 8 6 6 6 5 3 2 3
18 7 12 21 16 13 6 6 9 2 10 2 4 10 11 9 8 15 20 22 17 11 13 7 7 4 11 11 11 11 10 10 11 8 5 6 6 6 8 10 10 8 8 8 7 6 4 2 2
14 11 16 20 14 8 8 1 15 7 8 10 8 4 8 5 4 6 11 18 21 15 14 12 8 4 5 6 11 10 11 11 11 9 6 7 7 7 8 7 8 9 10 10 9 7 5 4 4
13 12 15 18 5 8 3 12 5 8 5 17 14 13 8 7 5 4 6 7 17 21 15 13 15 11 14 14 12 9 11 11 12 9 6 8 5 9 9 9 10 11 11 10 9 8 7 6 4
11 24 20 16 2 1 1 1 7 14 6 7 9 17 9 4 5 6 8 8 8 16 24 24 17 15 13 14 14 8 9 6 7 8 11 9 12 14 11 12 11 13 13 12 11 10 10 11 11
18 12 25 12 5 1 3 4 8 10 11 1 4 6 6 4 4 5 7 10 11 11 13 21 22 19 18 17 13 14 10 12 7 12 16 14 15 17 15 11 12 11 13 8 12 10 10 11 12
14 20 10 13 7 1 3 6 19 13 7 8 5 5 6 7 7 6 6 8 11 12 11 12 19 22 20 18 18 13 16 17 17 18 20 19 18 20 19 15 15 16 13 14 13 14 13 18 15
6 6 8 6 12 3 5 9 14 16 7 13 12 12 13 15 13 12 11 9 10 13 11 14 12 13 20 20 19 20 17 18 19 17 19 18 23 23 22 21 21 20 20 18 20 21 21 21 18
7 3 9 6 11 9 12 6 14 21 18 17 14 15 15 15 15 15 13 12 11 13 10 12 15 15 16 19 20 21 23 19 19 17 18 20 19 25 26 25 24 23 23 23 22 24 24 23 22
7 7 13 9 11 6 11 3 19 22 26 21 21 23 22 19 18 16 15 15 15 16 18 17 16 12 15 14 18 25 20 23 20 19 22 22 23 23 23 28 27 26 27 26 27 25 26 27 27
15 10 17 13 13 14 10 9 7 7 9 13 14 13 13 12 12 12 12 14 18 16 18 20 19 19 22 17 18 24 27 24 25 26 23 23 26 26 27 27 28 29 27 30 31 31 29 30 28
10 13 13 14 8 9 12 11 10 12 11 11 14 15 15 13 13 13 12 18 20 17 18 18 20 20 19 20 22 24 28 30 30 27 29 27 29 31 31 33 33 32 31 32 33 33 32 32 29
2 6 17 4 9 6 6 9 8 9 10 16 17 17 16 11 8 8 9 10 16 20 22 23 22 22 23 25 27 26 24 31 33 35 34 32 31 30 32 34 35 35 35 35 36 37 35 34 32
5 7 8 6 6 2 3 7 9 7 3 4 5 8 10 9 7 3 1 2 4 11 14 17 22 24 25 26 28 31 33 22 26 32 36 36 33 36 31 33 36 37 37 37 38 39 39 38 37
8 6 5 11 6 3 8 4 12 8 5 4 6 6 7 7 5 6 3 3 4 5 3 5 6 8 13 22 30 32 32 33 23 25 26 29 31 31 30 35 38 37 38 37 37 39 42 42 41
3 8 5 4 5 4 7 2 3 11 7 7 10 9 8 7 6 4 5 4 3 6 5 5 6 5 8 10 11 15 22 28 31 28 22 24 28 30 31 33 30 37 36 38 37 37 39 42 46
8 11 8 4 1 2 7 6 4 7 11 8 11 13 11 9 7 4 2 1 5 8 8 9 9 9 9 11 11 12 13 14 18 22 26 27 26 26 26 29 31 28 31 36 39 39 40 41 44
8 7 2 1 1 3 3 4 6 9 11 8 10 15 12 8 6 4 3 4 6 8 10 11 11 13 12 12 13 11 11 14 14 14 17 23 21 22 26 30 31 31 31 32 34 37 41 43 45
2 4 3 4 4 4 3 5 4 7 18 18 16 14 11 7 4 2 4 4 5 9 11 11 11 10 10 13 14 12 10 11 12 13 13 14 20 21 21 22 25 28 25 28 30 32 34 37 41
3 2 3 3 2 3 5 3 3 6 9 12 11 12 11 8 4 3 2 4 6 8 9 8 6 4 5 5 4 7 8 12 14 14 15 16 16 19 23 23 22 24 24 26 24 26 30 32 35
2 2 1 1 2 3 5 7 4 10 8 8 9 13 12 8 5 4 4 6 6 7 7 5 4 4 5 4 4 4 6 8 10 10 13 15 16 17 19 21 23 22 22 24 23 23 25 29 31
1 1 3 2 1 2 2 2 1 11 9 9 9 8 6 7 5 5 7 7 3 6 7 5 4 3 3 4 5 6 8 9 10 12 15 18 19 19 18 17 19 22 26 22 20 21 21 22 25
5 6 5 2 3 1 2 3 5 9 9 12 6 8 7 6 6 5 6 3 1 7 7 7 6 5 6 8 9 9 10 12 12 12 14 15 15 16 18 19 19 19 18 20 20 19 17 18 19
Wind_Direction
250 255 335 297 247 220 247 242 79 108 58 69 38 5 347 312 41 103 146 132 182 182 165 162 154 153 152 149 153 152 140 142 177 245 193 167 99 65 101 109 123 128 127 123 73 48 44 62 119
241 265 288 273 240 244 227 243 124 242 66 56 348 269 267 75 71 101 144 138 159 177 158 162 156 155 154 160 157 150 152 200 247 270 155 125 100 94 104 109 121 125 136 116 56 30 41 77 85
231 214 281 213 240 244 246 201 136 82 79 204 181 224 222 73 67 114 169 143 155 174 158 161 152 156 155 159 156 153 160 191 117 97 117 114 118 111 117 119 123 126 124 115 30 32 69 84 89
224 272 265 253 238 228 262 63 32 114 123 305 334 140 77 50 90 152 127 143 151 149 178 165 160 158 158 150 149 158 172 172 120 115 126 131 136 146 128 120 116 134 139 167 19 61 90 95 93
244 266 243 229 246 253 233 97 0 144 153 166 1 139 103 80 105 112 131 140 146 175 187 183 166 164 159 159 160 165 177 175 167 107 133 141 153 155 156 150 141 152 174 182 58 99 103 100 96
201 222 258 234 224 246 267 124 127 186 144 102 243 110 91 111 114 121 133 139 148 184 207 205 177 172 172 165 167 167 176 187 181 124 141 152 160 159 170 173 174 171 178 157 110 115 108 101 95
164 271 222 243 231 219 225 159 168 212 235 227 348 12 124 131 129 121 132 147 152 173 230 184 181 178 184 176 177 175 190 203 188 143 153 164 169 164 166 185 184 181 179 167 148 133 118 99 100
193 149 273 252 246 269 194 180 168 205 237 98 109 28 92 144 148 143 142 153 160 166 204 220 189 199 177 181 181 190 201 210 235 232 167 167 179 175 168 176 183 189 190 181 162 151 134 111 110
185 178 250 250 245 248 257 147 163 201 258 159 191 91 119 162 160 158 160 157 154 170 168 197 233 211 185 195 212 197 200 215 228 206 179 182 184 190 181 180 184 199 198 190 178 174 170 155 136
207 214 215 236 243 273 315 54 156 150 240 254 198 120 134 202 151 176 174 175 163 164 172 185 204 219 157 191 239 238 225 227 229 209 211 198 197 201 204 198 203 200 202 203 194 196 197 194 175
226 231 225 242 280 347 274 157 229 173 240 224 190 188 169 182 179 205 199 211 180 160 178 184 186 199 191 202 229 241 224 227 230 228 199 205 199 247 235 218 216 219 225 223 213 214 211 216 210
213 222 255 254 136 113 353 155 236 255 207 10 107 139 145 179 235 211 226 194 253 191 181 181 179 199 207 217 215 242 241 243 210 210 255 215 189 240 253 243 231 230 232 237 228 231 226 222 204
219 244 220 239 83 274 248 258 288 265 248 227 91 136 144 204 218 244 235 214 201 243 228 193 185 184 204 215 223 197 218 245 228 222 240 240 203 231 252 253 251 247 236 233 242 271 238 242 237
221 231 263 172 138 184 212 227 248 254 221 192 218 244 242 236 227 228 233 249 221 228 248 251 208 204 196 223 206 215 205 218 232 222 231 222 224 230 233 240 243 255 236 229 237 251 230 247 245
68 203 265 218 150 173 194 255 246 234 241 250 232 234 244 246 242 242 235 237 235 241 242 255 274 239 217 205 223 201 217 216 233 239 238 240 223 231 238 235 227 241 248 232 217 228 237 244 244
189 230 194 217 172 174 174 244 229 233 235 250 238 236 238 240 245 239 237 243 235 232 209 228 256 268 255 225 229 237 215 215 227 237 245 253 250 234 235 238 235 228 240 246 239 227 229 237 240
196 184 198 192 194 195 197 230 244 225 218 230 246 247 248 250 252 248 242 246 249 245 241 230 220 234 264 264 229 249 243 227 222 229 233 239 254 257 245 239 243 237 230 239 242 239 236 235 237
186 216 199 203 193 194 190 239 280 175 194 216 245 245 241 242 252 257 255 246 235 228 236 241 241 247 237 233 246 251 263 256 243 238 230 241 241 250 253 253 246 244 236 233 239 242 238 242 243
184 199 237 204 162 185 224 228 230 240 202 230 246 257 263 254 251 249 216 234 240 232 230 228 226 230 236 240 236 250 255 265 266 259 246 240 247 250 251 250 251 245 241 239 241 241 241 241 240
124 247 218 130 141 179 201 243 245 224 204 221 244 249 249 265 250 261 262 267 257 259 249 247 246 243 244 245 241 240 259 261 265 269 267 248 241 251 257 252 254 255 247 238 237 243 241 239 237
194 259 188 155 125 345 0 278 221 233 240 243 276 263 255 272 278 265 318 264 244 246 252 249 246 242 236 235 237 240 237 257 266 264 268 270 257 243 243 254 254 258 257 246 237 240 242 240 236
189 237 312 127 139 209 166 267 215 180 188 194 197 189 170 169 157 162 134 193 254 273 258 250 252 260 254 247 247 250 251 248 252 274 278 277 276 275 264 251 249 255 253 252 249 238 244 238 240
218 127 93 120 203 58 192 259 230 132 196 195 171 149 144 155 139 161 218 237 279 293 292 282 278 276 293 287 277 269 261 255 252 247 252 266 269 275 279 280 273 250 252 250 248 243 242 240 241
126 94 77 38 15 220 214 194 206 181 195 171 154 166 169 169 173 181 246 265 265 285 294 294 291 278 267 276 286 293 291 282 271 266 259 255 262 265 270 272 274 267 260 253 253 249 249 251 248
131 136 118 159 206 228 20 176 276 186 167 154 158 161 173 169 172 177 235 269 287 304 301 296 287 283 277 269 269 263 270 286 286 283 272 255 255 266 268 271 274 271 269 266 257 257 255 254 254
218 201 145 201 189 159 65 225 303 115 132 149 148 160 164 177 169 195 279 321 315 308 304 308 305 301 284 271 273 273 266 271 268 266 265 265 258 254 259 267 277 279 274 275 267 260 257 260 259
200 141 40 311 239 109 188 187 349 115 125 137 169 170 187 174 177 219 268 288 290 294 310 335 339 344 320 322 286 271 262 268 273 275 275 273 268 260 255 259 264 274 278 278 277 266 262 260 263
283 188 152 294 187 223 201 174 221 177 186 163 155 190 166 182 192 236 273 276 284 289 311 314 325 337 347 360 352 324 302 298 291 283 278 275 272 271 268 264 261 260 270 272 276 274 271 269 266
148 146 209 333 172 224 140 244 65 176 171 164 152 144 167 177 198 239 277 280 266 281 296 292 301 314 341 350 347 331 321 312 301 290 285 282 280 276 276 275 271 265 269 277 277 273 270 265 267
261 200 166 183 223 207 173 275 317 141 151 137 134 166 180 193 223 256 271 285 234 260 268 269 274 296 323 330 326 318 317 314 307 300 287 284 287 286 283 283 281 281 284 280 278 275 271 268 265